CZ-4C DEB, 40113

Orbit data source: Space-Track

CZ-4C DEB, 40113 is space debris in LEO originally from a launch on Sat, 09 Aug 2014 UTC launched from the Jiuquan Satellite Launch Center, China (JSC). Debris objects in space refer to the collection of defunct objects orbiting the Earth. Examples of debris include non-operational satellites, rocket bodies, and fragments generated from explosions, collisions, or faulty payload assembly.

Loading next visibility...
Identifier
40113, 2014-047E
Orbit
LEO
Country
Flag of CNCN / PRC
Related business
Manufacturer
CAST
Mission
Spacecraft
Bus & Motor
Unknown
Mass
Unknown
Launch date (UTC)
2014-08-09 (11 years ago)
Launch vehicle
Unknown
Launch site
Jiuquan Satellite Launch Center, China (JSC)
Object type
Payload
Rocket body
Debris
Shape & HBR
Unknown shape, 3.4 m
Radar Cross Section
Large (>1 m²)

Expand to show TLE details & history
Last TLE update: 9 hours ago

TLE from 9 hours ago
0 CZ-4C DEB
1 40113U 14047E   26036.20817224  .00000206  00000-0  32689-3 0  9997
2 40113  63.3813  20.2005 0381210  14.8942 346.2948 13.44681092564219
Epoch: 2026-02-05T04:59Z
TLE epoch observation values (Epoch: 2026-02-05T04:59:46.081Z)
Latitude
-0.00007°
Longitude
169.89476°
Altitude
817.619 km
Speed
7.581 km/s
True Right ascension
01h 20m 48s
True Declination
0° 00' 00"
Sunlit
Object was in daylight at epoch
Visualization orbit readout
Latitude
Unknown
Longitude
Unknown
Altitude
Unknown
Speed
Unknown
Apparent Right ascension
Unknown
Apparent Declination
Unknown
Sunlit
N/A
Visualization observer readout
Local Sidereal Time
16:04:05
Azimuth
Unknown
Elevation
Unknown
Doppler factor
Unknown
Orbital elements
Apogee altitude
1,375.442 km
Perigee altitude
806.002 km
Semi-major axis
7,468.859 km
Eccentricity
0.03812
Inclination
63.3813°
RAAN
20.2005°
Arg. of periapsis
14.8942°
True anomaly
345.20975°
Mean anomaly
346.2948°
Eccentric anomaly
345.75743°
Mean motion
3.3625 °/min
Orbital period
107.06 mins
BSTAR
0.00032689
Loading maneuver chart data...
Computing Atmospheric mass density...
Loading historical data...
Loading historical data...
Loading historical data...
Loading historical data...
Loading historical data...
Loading historical data...
Loading historical data...

Documentation

Showing up to 5 results
|